Content
SEND FEEDBACK

Daily
Averages
Monthly
Summary
Canada

EVANSTON, NOVA SCOTIA


Home > North America > Canada > Nova Scotia
Elevation: 217 feet     Latitude: 45 31N     Longitude: 061 15W

WEATHER
 
SELECT A DAY
Number of Records: 102,221;   Date Range: 6/19/04 - 7/27/14
 
SHARE

PRINT THIS DATA

[ ← Previous Day ]
WEATHER ALMANAC - JANUARY 31, 2013
[ Next Day → ]
[ °C ]   °F
Weather ElementAverageHighLow
Temperature52.2 °F57.6 °F (12:00 pm)40.5 °F (11:00 pm)
Dewpoint49.3 °F53.8 °F (11:00 am)35.4 °F (11:00 pm)
Humidity89.3 %93 % (1:00 am)82 % (11:00 pm)
Barometer29.36 in29.63 in (1:00 am)29.08 in (6:00 pm)
Wind Speed24 mph35.7 mph (4:00 pm)
Wind Gust58.7 mph (4:00 pm)
Weather ElementAverage
Wind DirectionSSW (200.7 °)

Weather ElementTotal
Precipitation0.16 in
Heating Degree Days16 (Base 65)
Averaged from 27 records on January 31, 2013
WEATHER CONDITIONS BREAKOUT
WIND DIRECTION BREAKOUT
WEATHER BY HOUR - JANUARY 31, 2013
[ °C ]   °F
Local TimeTemperatureDewpointHumidityBarometerVisibilityWind DirectionWind SpeedGust SpeedPrecipitationEventsConditions
1:00 AM50.0 °F48.0 °F93 %29.63 inSSW (200°)25.3 mph39.1 mph
2:00 AM51.0 °F49.0 °F90 %29.62 inSSW (200°)23.0 mph
2:00 AM51.3 °F48.9 °F92 %29.62 inSSW (200°)23.0 mph34.5 mph
3:00 AM51.1 °F48.6 °F91 %29.61 inSSW (210°)21.9 mph32.2 mph
4:00 AM52.5 °F50.5 °F93 %29.60 inSSW (210°)21.9 mph32.2 mph
5:00 AM52.5 °F50.2 °F92 %29.60 inSSW (210°)21.9 mph33.4 mph
6:00 AM52.9 °F50.9 °F93 %29.57 inSSW (200°)21.9 mph31.1 mph
7:00 AM52.9 °F50.9 °F93 %29.56 inSSW (200°)19.6 mph29.9 mph
8:00 AM53.0 °F51.0 °F88 %29.53 inSSW (200°)21.9 mph
8:00 AM52.9 °F50.5 °F92 %29.53 inSSW (200°)21.9 mph33.4 mph
9:00 AM53.1 °F51.1 °F93 %29.48 inSouth (190°)21.9 mph34.5 mph
10:00 AM55.4 °F53.1 °F92 %29.47 inSSW (200°)23.0 mph36.8 mph
11:00 AM56.8 °F53.8 °F89 %29.42 inSSW (200°)25.3 mph41.4 mph
12:00 PM57.6 °F53.8 °F87 %29.40 inSSW (200°)26.5 mph35.7 mph
1:00 PM57.0 °F53.4 °F88 %29.35 inSSW (200°)21.9 mph33.4 mph
2:00 PM56.0 °F53.0 °F86 %29.27 inSSW (200°)31.1 mph
2:00 PM56.5 °F52.9 °F88 %29.27 inSSW (200°)31.1 mph46.0 mph
3:00 PM56.8 °F52.5 °F85 %29.16 inSouth (190°)34.5 mph50.6 mph
4:00 PM56.8 °F53.4 °F88 %29.14 inSouth (190°)35.7 mph58.7 mph
5:00 PM56.1 °F53.4 °F91 %29.09 inSouth (190°)31.1 mph46.0 mph0.10 in
6:00 PM55.2 °F52.9 °F92 %29.08 inSSW (200°)34.5 mph49.5 mph0.06 in
7:00 PM51.1 °F48.6 °F91 %29.11 inSSW (200°)20.7 mph31.1 mph
8:00 PM47.0 °F44.0 °F86 %29.11 inSSW (200°)17.3 mph
8:00 PM47.5 °F44.2 °F89 %29.11 inSSW (200°)17.3 mph25.3 mph
9:00 PM45.0 °F40.3 °F84 %29.12 inSSW (200°)16.1 mph23.0 mph
10:00 PM42.1 °F37.2 °F83 %29.15 inSW (220°)17.3 mph29.9 mph
11:00 PM40.5 °F35.4 °F82 %29.16 inSSW (210°)20.7 mph29.9 mph
Hourly data recorded from CYPD, located miles away from Evanston, Nova Scotia







STORIES FROM OUR PARTNERS